DMSP 5D-2 F13 DEB, 40490

Orbit data source: Space-Track

DMSP 5D-2 F13 DEB, 40490 is space debris in SSO originally from a launch on Fri, 24 Mar 1995 UTC launched from the Air Force Western Test Range (AFWTR). Debris objects in space refer to the collection of defunct objects orbiting the Earth. Examples of debris include non-operational satellites, rocket bodies, and fragments generated from explosions, collisions, or faulty payload assembly.

Loading next visibility...
Identifier
40490, 1995-015CD
Orbit
SSO
Country
Flag of USUS
Related business
Manufacturer
Unknown
Mission
Spacecraft
Bus & Motor
Unknown
Mass
Unknown
Launch date (UTC)
1995-03-24 (31 years ago)
Launch vehicle
Unknown
Launch site
Air Force Western Test Range (AFWTR)
Object type
Payload
Rocket body
Debris
Shape & HBR
Unknown shape, 0.1 m
Radar Cross Section
Medium (>0.1 m² and <1 m²)

Expand to show TLE details & history
Last TLE update: 2 days ago

TLE from 2 days ago
0 DMSP 5D-2 F13 DEB
1 40490U 95015CD  26170.63472145  .00001624  00000-0  11814-2 0  9995
2 40490  98.7734 306.7006 0158134 166.7356 193.8037 13.91792890568970
Epoch: 2026-06-19T15:13Z
TLE epoch observation values (Epoch: 2026-06-19T15:13:59.933Z)
Latitude
0.00004°
Longitude
170.34°
Altitude
1,037.464 km
Speed
7.277 km/s
True Right ascension
20h 26m 48s
True Declination
0° 00' 00"
Sunlit
Object was in full shadow at epoch
Visualization orbit readout
Latitude
Unknown
Longitude
Unknown
Altitude
Unknown
Speed
Unknown
Apparent Right ascension
Unknown
Apparent Declination
Unknown
Sunlit
N/A
Visualization observer readout
Local Sidereal Time
13:26:14
Azimuth
Unknown
Elevation
Unknown
Doppler factor
Unknown
Orbital elements
Apogee altitude
1,034.954 km
Perigee altitude
804.152 km
Semi-major axis
7,297.69 km
Eccentricity
0.01581
Inclination
98.7734°
RAAN
306.7006°
Arg. of periapsis
166.7356°
True anomaly
193.3795°
Mean anomaly
193.8037°
Eccentric anomaly
193.59079°
Mean motion
3.48149 °/min
Orbital period
103.4 mins
BSTAR
0.0011814
Loading maneuver chart data...
Computing Atmospheric mass density...

Documentation

Showing up to 5 results
|